DELTA 1 DEB, 10626

Orbit data source: Space-Track

DELTA 1 DEB, 10626 is space debris in LEO originally from a launch on Thu, 14 Jul 1977 UTC launched from the Air Force Eastern Test Range (AFETR). Debris objects in space refer to the collection of defunct objects orbiting the Earth. Examples of debris include non-operational satellites, rocket bodies, and fragments generated from explosions, collisions, or faulty payload assembly.

Loading next visibility...
Identifier
10626, 1977-065EV
Orbit
LEO
Country
Flag of USUS
Related business
Manufacturer
Unknown
Mission
Spacecraft
Bus & Motor
Unknown
Mass
Unknown
Launch date (UTC)
1977-07-14 (48 years ago)
Launch vehicle
Unknown
Launch site
Air Force Eastern Test Range (AFETR)
Object type
Payload
Rocket body
Debris
Shape & HBR
Unknown shape, 0.1 m
Radar Cross Section
Small (<0.1 m²)

Expand to show TLE details & history
Last TLE update: 14 hours ago

TLE from 14 hours ago
0 DELTA 1 DEB
1 10626U 77065EV  25350.33375986  .00001052  00000-0  23461-3 0  9996
2 10626  29.1749   4.6548 0659100 138.4630 226.7969 13.67165568357567
Epoch: 2025-12-16T08:00Z
TLE epoch observation values (Epoch: 2025-12-16T08:00:36.851Z)
Latitude
-0.00001°
Longitude
159.28177°
Altitude
1,357.408 km
Speed
7.01 km/s
True Right ascension
00h 18m 37s
True Declination
0° 00' 00"
Sunlit
Object was in daylight at epoch
Visualization orbit readout
Latitude
Unknown
Longitude
Unknown
Altitude
Unknown
Speed
Unknown
Apparent Right ascension
Unknown
Apparent Declination
Unknown
Sunlit
N/A
Visualization observer readout
Local Sidereal Time
20:57:44
Azimuth
Unknown
Elevation
Unknown
Doppler factor
Unknown
Orbital elements
Apogee altitude
1,500.824 km
Perigee altitude
526.441 km
Semi-major axis
7,391.769 km
Eccentricity
0.06591
Inclination
29.1749°
RAAN
4.6548°
Arg. of periapsis
138.463°
True anomaly
221.5931°
Mean anomaly
226.7969°
Eccentric anomaly
224.16577°
Mean motion
3.41523 °/min
Orbital period
105.41 mins
BSTAR
0.00023461
Loading maneuver chart data...
Computing Atmospheric mass density...
Loading historical data...
Loading historical data...
Loading historical data...
Loading historical data...
Loading historical data...
Loading historical data...
Loading historical data...

Documentation

Showing up to 5 results
|